This is the latest recevied weather packets stored in our database for station/object OE2SWM. If no packets are shown the sender has not sent any weather packets the latest 10 day(s).
| Time | Temp. | Humidity | Pressure | Rain* | Wind** | Luminosity | Snow |
|---|---|---|---|---|---|---|---|
| 1788433800 | 22.78° C | 58% | 975 hPa | 0 mm | - | - | - |
| 1788433200 | 23.89° C | 56% | 975 hPa | 0 mm | - | - | - |
| 1788432600 | 22.78° C | 57% | 975 hPa | 0 mm | - | - | - |
| 1788431400 | 22.78° C | 58% | 975 hPa | 0 mm | - | - | - |
| 1788430800 | 22.78° C | 60% | 975 hPa | 0 mm | - | - | - |
| 1788430200 | 22.78° C | 61% | 975 hPa | 0 mm | - | - | - |
| 1788429600 | 21.67° C | 63% | 976 hPa | 0 mm | - | - | - |
| 1788429000 | 21.67° C | 64% | 976 hPa | 0 mm | - | - | - |
| 1788428400 | 21.67° C | 63% | 976 hPa | 0 mm | - | - | - |
| 1788427800 | 20.56° C | 65% | 976 hPa | 0 mm | - | - | - |
| 1788427200 | 20.56° C | 71% | 976 hPa | 0 mm | - | - | - |
| 1788426600 | 20.56° C | 70% | 976 hPa | 0 mm | - | - | - |
| 1788426000 | 20° C | 73% | 976 hPa | 0 mm | - | - | - |
| 1788424800 | 18.89° C | 74% | 976 hPa | 0 mm | - | - | - |
| 1788424200 | 18.89° C | 73% | 976 hPa | 0 mm | - | - | - |
| 1788423600 | 18.89° C | 73% | 976 hPa | 0 mm | - | - | - |
| 1788423000 | 17.78° C | 77% | 976 hPa | 0 mm | - | - | - |
| 1788422400 | 17.78° C | 84% | 976 hPa | 0 mm | - | - | - |
| 1788421800 | 17.78° C | 85% | 976 hPa | 0 mm | - | - | - |
| 1788421200 | 16.67° C | 85% | 976 hPa | 0 mm | - | - | - |
| 1788420600 | 16.67° C | 87% | 976 hPa | 0 mm | - | - | - |
| 1788420000 | 15.56° C | 90% | 976 hPa | 0 mm | - | - | - |
| 1788419400 | 15.56° C | 91% | 976 hPa | 0 mm | - | - | - |
| 1788418800 | 15.56° C | 90% | 976 hPa | 0 mm | - | - | - |
| 1788418200 | 15.56° C | 92% | 976 hPa | 0 mm | - | - | - |
* Rain latest hour (hover to see other rain measurements)
** Current wind speed in m/s (hover to see current wind gust speed)